Location: Cheyres
(46.8153°N, 6.7877°E)
Time: 02:46:30
(UTC+00:00)

Cosmos 2084 - Pass Details

Date: 11 May 2021
Orbit: 542 x 640 km, 62.8° (Epoch: 18 June)

Event Time Altitude Azimuth Distance (km) Brightness Sun altitude
Rises 20:00:17 0° 206° (SSW) 2,701 6.7 -9.9°
Reaches altitude 10° 20:02:30 10° 202° (SSW) 1,821 5.8 -10.2°
Maximum altitude 20:06:29 54° 125° (SE) 687 3.4 -10.7°
Drops below altitude 10° 20:10:37 10° 48° (NE) 1,881 6.0 -11.2°
Sets 20:12:55 0° 44° (NE) 2,800 6.9 -11.5°
